{"data":{"norad_id":55461,"intl_designator":"2023-015N","name":"STARLINK-5646","alt_names":[],"object_type":"PAYLOAD","status":"ACTIVE","operator":null,"country":"US","launch_date":"2023-02-02","launch_site_code":"AFETR","launch_vehicle":null,"mission":null,"orbit_class":"UNKNOWN","rcs_meters":null,"size_class":null,"mass_kg":null,"dimensions":null,"purposes":["comms"],"wikipedia_slug":null,"has_3d_model":false,"image_url":null,"decayed_at":null,"tle_current":{"epoch":"2026-09-20T14:49:20.709120Z","epoch_age_seconds":90199,"freshness":"FRESH","line1":"1 55461U 23015N   26263.61760080 -.00000639  00000+0 -13695-4 0  9996","line2":"2 55461  43.0023 307.8828 0001366 274.8514  85.2182 15.27581517200536","mean_motion":15.27581517,"eccentricity":0.0001366,"inclination_deg":43.0023,"raan_deg":307.8828,"arg_perigee_deg":274.8514,"mean_anomaly_deg":85.2182,"bstar":-1.3695e-5,"rev_number":20053,"period_min":94.266655099886,"perigee_km":482.10731619945,"apogee_km":483.9817909999,"semimajor_km":6861.1815535997,"source":"CELESTRAK","updated_at":"2026-09-21T09:00:33.228773Z"}}}